Wind_Speed
20 18 17 18 13 12 10 9 10 9 8 8 9 8 8 6 13 15 12 7 8 12 4 5 4 4 5 6 4 2 7 12 19 15 10 4 9 10 2 7 3 3 3 3 0
23 20 19 17 17 13 11 9 10 8 7 7 7 6 4 3 16 11 12 10 12 6 12 8 6 6 5 6 5 9 10 15 7 11 7 5 8 3 6 10 11 8 5 2 3
22 21 20 18 19 16 12 11 9 8 7 5 5 5 1 3 4 5 13 18 15 12 6 6 7 3 6 5 8 9 13 9 6 6 3 8 10 8 11 14 13 11 6 1 1
22 22 20 19 17 19 14 13 10 7 6 3 3 3 3 5 6 6 4 4 10 14 8 7 6 6 5 8 6 8 10 10 7 9 6 10 8 13 14 19 8 8 6 8 8
22 22 22 20 16 18 17 14 11 8 5 3 3 1 2 6 6 5 4 1 6 15 15 9 9 6 9 5 5 9 9 8 10 10 12 13 18 21 20 18 17 16 15 16 14
23 23 22 22 17 16 20 16 12 9 7 4 3 3 3 9 2 4 3 4 6 15 17 13 7 4 2 4 8 1 6 9 9 13 13 16 21 19 18 18 22 23 23 22 21
24 23 22 21 20 15 20 18 14 11 9 5 4 3 3 7 2 1 6 5 6 10 11 5 9 6 7 4 3 6 11 13 15 13 13 10 21 21 21 22 25 22 21 21 22
25 21 22 21 21 13 16 20 16 13 10 8 5 3 5 3 6 6 5 7 8 7 7 9 7 5 4 1 4 5 6 6 3 1 4 9 16 6 10 13 17 20 21 22 22
25 24 22 19 18 16 12 23 19 16 12 10 5 3 3 2 4 6 8 11 11 10 8 9 8 3 5 6 6 8 8 9 10 4 4 10 12 3 3 9 12 13 13 14 17
25 24 20 19 17 17 13 24 19 17 11 8 4 3 4 4 5 5 8 14 7 11 8 4 3 5 8 8 6 5 12 9 11 2 9 17 22 20 19 21 20 18 17 17 18
22 22 19 18 17 17 17 23 8 4 9 7 7 0 5 6 7 4 12 11 10 11 9 6 7 11 14 14 12 5 7 11 10 9 17 19 22 21 21 24 24 23 22 23 23
22 21 20 19 18 18 14 4 17 10 7 9 7 5 1 4 5 7 13 8 12 12 9 6 12 12 8 11 13 14 16 17 15 13 14 19 33 24 25 29 26 25 25 25 25
23 22 21 22 22 19 13 22 22 15 4 7 11 7 5 5 4 11 14 6 10 12 15 8 3 3 14 11 13 16 16 15 17 16 18 21 27 15 8 14 17 22 25 25 25
30 25 33 25 17 17 14 25 19 5 3 9 9 7 9 6 5 10 16 5 5 12 9 9 11 7 9 12 13 14 8 12 13 8 6 3 12 18 16 15 14 15 16 18 19
36 30 25 20 7 4 7 21 22 5 7 11 7 9 10 11 10 5 12 4 8 8 6 4 6 10 14 15 10 7 5 7 8 11 14 15 7 14 5 13 12 16 17 14 14
33 31 29 10 20 14 12 30 5 5 6 8 7 11 13 14 7 6 8 3 3 6 6 10 2 5 10 9 13 2 6 9 10 6 8 17 16 20 14 12 10 9 9 10 10
35 34 24 12 11 21 13 13 3 4 8 9 9 11 14 12 10 9 10 10 6 5 8 8 17 8 8 7 8 10 3 3 4 6 8 2 10 22 10 5 13 20 19 13 14
39 34 5 19 8 26 14 5 4 6 7 7 13 15 7 15 6 9 12 10 13 7 3 5 4 14 11 15 5 15 9 5 6 6 8 4 11 10 11 10 16 17 12 11 12
40 5 3 14 15 19 5 4 4 7 11 13 13 8 5 11 5 7 9 7 10 14 6 5 4 2 9 4 11 5 9 12 14 20 15 11 22 24 25 22 20 20 17 10 10
23 3 3 10 17 13 4 3 0 5 19 16 7 6 9 13 8 11 11 5 10 14 14 2 4 5 3 5 11 12 3 4 6 5 10 13 20 14 14 9 7 9 9 8 11
9 2 5 15 24 5 1 3 5 13 12 3 7 8 7 11 11 9 6 2 8 8 15 6 4 3 3 11 13 10 8 7 8 9 6 14 9 2 10 10 15 4 4 9 11
3 1 6 22 4 2 2 3 6 9 3 5 6 9 13 11 9 8 7 4 6 10 10 11 4 8 15 11 13 15 15 19 9 13 11 16 23 7 12 9 4 4 9 9 11
1 1 6 4 3 3 1 3 3 4 3 3 4 4 4 8 5 7 3 2 10 10 10 11 5 4 4 3 5 8 16 23 21 16 21 10 14 6 6 6 5 10 13 13 10
1 2 4 3 3 8 4 4 3 5 3 6 11 9 8 4 2 4 6 3 9 13 7 11 4 8 10 14 3 9 16 19 18 13 22 25 32 22 11 19 22 21 18 12 9
1 3 2 4 1 6 4 4 10 4 3 3 4 5 5 4 4 4 7 5 4 8 8 7 5 13 20 23 24 25 27 27 20 26 19 32 19 23 18 18 19 14 12 11 7
3 1 2 2 4 7 4 7 6 4 3 3 3 6 5 4 5 3 6 7 6 8 10 7 4 3 15 23 22 23 23 22 20 18 20 26 26 24 22 15 15 16 14 10 5
7 5 1 6 8 8 7 7 8 7 3 2 5 5 5 7 9 7 6 3 3 5 12 5 2 2 6 12 22 7 6 12 15 8 7 10 15 10 12 11 9 10 7 9 4
Wind_Direction
332 302 291 258 252 254 260 249 261 272 277 283 289 287 292 255 190 184 213 227 209 204 178 165 160 219 191 180 186 196 226 229 228 238 229 192 224 223 267 255 233 210 278 18 32
338 329 292 284 245 247 255 247 257 266 273 281 291 294 314 215 182 202 225 226 211 183 193 179 159 197 191 183 183 211 225 235 255 249 237 229 244 207 233 215 226 211 181 40 159
333 330 326 290 264 240 240 244 248 255 262 270 291 287 281 185 208 212 219 231 227 189 177 153 133 191 210 186 185 208 228 221 231 233 253 252 242 242 243 243 234 229 232 349 50
328 330 329 317 282 242 234 233 231 234 251 249 286 287 245 232 223 131 128 173 230 191 172 157 160 176 211 205 194 222 242 242 249 239 258 246 266 251 245 249 264 277 278 292 269
325 324 327 327 296 258 231 227 225 217 225 220 207 224 189 218 244 173 133 114 193 196 186 187 175 189 217 210 203 231 245 249 249 256 258 265 254 257 260 254 257 263 265 267 268
323 317 324 319 309 267 227 221 216 208 205 210 185 169 188 230 222 204 186 89 163 180 191 184 185 157 204 222 230 162 251 265 268 256 260 261 261 253 247 254 256 257 257 256 258
321 318 310 318 318 276 235 222 206 202 191 184 171 161 215 245 179 184 170 114 134 187 174 141 129 200 166 206 198 244 268 267 259 255 264 263 264 246 251 249 254 251 249 248 250
321 315 311 310 306 287 245 212 199 194 180 166 160 149 247 231 220 238 157 121 114 129 182 153 142 138 213 141 201 237 253 265 126 327 236 218 261 279 285 241 250 255 255 250 244
318 320 317 307 306 297 264 210 191 179 165 155 141 188 246 169 215 212 182 153 131 114 114 134 150 157 168 226 244 213 258 240 285 235 270 220 278 216 319 260 260 258 260 261 256
314 319 314 309 305 299 261 211 176 156 147 152 120 223 214 182 156 168 169 162 141 138 122 148 162 183 216 205 235 251 231 243 255 181 271 272 266 268 270 274 271 266 261 257 257
312 319 317 310 318 313 275 145 126 122 183 192 176 237 133 122 135 166 168 144 148 178 185 189 207 214 220 224 245 297 270 262 259 271 298 276 275 274 274 268 264 260 257 258 256
318 317 309 314 308 307 264 252 168 155 182 201 148 215 163 164 133 152 173 167 170 186 171 178 232 237 241 236 242 254 264 268 280 280 282 289 284 283 270 260 257 255 256 254 252
316 303 309 303 306 299 255 241 204 151 108 161 201 197 188 202 167 169 185 169 183 170 193 199 144 231 205 215 233 242 253 264 273 298 286 284 283 263 266 254 257 251 253 257 254
321 295 301 289 289 254 237 223 215 151 142 164 189 212 189 171 215 165 183 164 174 200 190 234 236 199 190 223 230 260 253 255 268 278 276 38 290 286 280 276 263 260 248 245 247
322 298 300 279 224 260 218 204 183 253 191 136 150 147 170 178 131 169 179 194 183 165 176 172 181 204 219 230 216 241 222 236 257 269 289 246 251 274 209 272 258 264 263 260 260
325 328 322 243 215 240 181 166 122 167 190 154 137 170 155 192 164 127 172 232 180 184 240 248 181 211 224 227 215 92 236 257 263 263 252 247 212 276 279 273 260 251 275 272 263
330 322 313 189 216 209 193 126 135 231 163 147 168 157 158 169 159 158 169 182 171 169 216 233 233 219 203 225 211 216 186 264 233 206 247 358 219 243 267 218 267 279 296 283 290
328 320 286 191 198 165 163 117 175 128 144 153 143 148 160 152 166 167 167 190 214 207 134 219 223 200 189 212 204 198 201 228 254 244 280 66 246 248 263 269 263 266 273 289 300
334 324 172 199 187 178 129 172 161 166 139 143 130 140 135 169 157 166 193 208 204 199 200 196 251 169 200 190 202 174 216 239 276 273 274 243 263 274 268 262 256 261 266 256 303
330 286 302 170 172 121 148 99 3 143 127 148 131 185 163 172 161 184 188 214 213 197 209 167 262 204 145 212 234 218 203 187 208 271 267 256 258 258 281 272 240 236 227 291 309
307 240 166 157 109 100 119 95 107 136 135 148 130 137 160 166 186 184 177 177 207 193 194 173 205 143 150 210 204 198 226 214 281 242 257 280 256 40 284 266 260 230 249 304 319
283 230 158 144 87 93 85 106 128 146 90 93 92 98 147 158 173 190 206 245 179 154 187 198 200 235 236 229 225 234 237 222 230 234 233 251 267 316 282 266 284 244 284 313 319
328 114 104 247 111 136 162 77 80 132 75 108 106 96 144 152 156 185 173 182 170 181 182 175 212 277 251 154 211 238 244 240 239 260 248 251 259 71 14 277 272 303 305 308 318
151 95 33 56 320 152 145 105 95 41 84 82 109 102 115 129 202 165 208 194 198 209 193 187 218 243 263 283 324 256 258 254 244 248 257 242 263 256 239 275 289 296 295 308 315
4 63 146 158 166 140 147 122 153 143 82 89 104 133 147 144 179 210 218 186 189 206 192 196 249 248 260 274 280 273 273 274 257 242 244 267 257 273 278 267 281 289 292 302 293
4 65 61 99 138 150 149 178 163 114 137 137 121 164 160 170 192 203 192 202 223 173 192 204 263 282 283 275 272 272 277 280 273 263 245 253 265 268 283 289 272 273 283 288 271
338 327 290 151 178 188 192 165 182 143 175 104 189 175 200 234 247 246 251 245 263 205 198 208 212 277 269 313 307 281 308 303 301 242 264 235 247 272 281 301 285 285 280 288 214
Height
793 792 791 790 789 790 789 789 789 788 787 787 787 785 783 784 785 787 787 787 787 788 789 789 789 792 789 786 786 784 784 782 778 777 774 772 774 764 767 768 765 763 763 766 768
791 788 787 785 785 785 786 785 786 785 784 785 785 783 782 782 784 783 783 783 784 787 788 785 784 789 786 783 782 781 783 775 768 769 773 771 771 770 771 767 764 763 765 766 767
790 786 783 781 781 782 782 782 782 782 783 782 782 781 782 782 783 776 779 780 782 785 786 784 783 787 786 783 782 781 778 771 777 775 775 775 774 771 769 769 762 762 759 764 765
788 784 780 778 777 777 778 779 779 779 780 779 780 780 781 783 778 775 776 776 778 782 784 782 782 785 787 786 782 786 778 777 777 777 778 776 772 772 768 763 759 765 764 764 762
785 782 778 775 773 773 774 776 776 776 778 778 779 779 782 781 773 775 774 774 776 779 780 781 781 782 786 784 786 783 778 781 778 781 778 775 773 771 767 763 763 762 762 760 759
782 779 776 772 769 769 769 772 773 774 775 777 777 779 781 779 774 774 774 773 775 778 779 781 779 785 786 785 785 783 784 782 780 778 776 777 769 769 762 759 759 758 757 756 755
779 776 773 770 766 764 766 767 769 772 773 775 776 779 779 774 773 774 774 773 775 777 780 782 782 786 783 786 783 784 786 777 773 771 772 771 767 759 754 754 753 751 749 749 749
775 771 769 766 763 760 761 763 767 771 771 773 775 778 774 772 772 773 774 775 775 777 779 782 784 786 783 786 783 783 781 776 766 770 768 773 757 746 746 747 748 746 745 743 743
771 767 764 762 760 757 757 759 763 767 770 772 776 778 770 772 771 772 773 774 776 779 782 783 783 783 786 786 782 778 772 776 773 765 768 769 755 748 748 747 747 743 742 742 740
767 763 760 758 756 754 752 753 759 764 769 774 775 778 770 767 769 771 773 775 775 778 783 784 783 783 783 783 773 766 774 772 773 766 767 764 756 750 748 746 743 740 737 736 736
763 760 757 754 753 751 750 743 757 766 765 758 761 763 764 767 769 770 773 774 774 776 779 783 784 781 775 777 772 778 776 775 770 768 768 760 751 748 744 741 738 734 731 729 726
759 756 753 751 750 748 745 743 737 742 757 759 761 763 766 766 767 771 773 772 772 772 777 785 782 772 775 777 782 782 780 775 769 767 769 760 737 740 737 727 725 724 721 717 717
754 751 748 747 745 743 741 741 738 735 742 757 760 760 763 765 762 766 770 771 768 774 773 771 771 773 779 782 785 781 778 774 773 769 768 762 729 714 706 707 709 711 711 710 708
747 743 740 741 743 735 734 737 739 736 746 753 757 756 760 761 762 763 767 768 771 768 774 773 769 777 780 780 780 777 770 777 777 778 768 767 736 713 705 702 703 701 700 699 699
739 733 729 730 729 729 726 732 739 742 729 746 754 754 754 756 758 765 767 766 767 769 773 769 774 776 777 775 777 775 774 775 774 772 770 761 778 701 704 704 702 695 690 689 691
731 725 721 718 723 724 725 731 740 739 720 742 747 750 754 754 755 762 766 768 765 769 771 765 772 772 768 770 772 775 778 776 773 777 767 743 754 698 690 685 686 688 687 685 685
725 716 713 714 715 720 726 729 736 715 728 740 740 743 744 751 754 755 764 768 766 774 773 765 763 766 770 773 774 776 784 769 769 771 744 723 727 699 682 685 688 682 679 681 681
718 710 708 710 715 716 720 728 714 716 717 726 731 738 743 747 751 755 758 763 758 759 761 760 755 759 767 767 765 774 774 760 751 728 721 734 720 683 676 679 680 679 679 680 677
711 706 707 708 713 717 725 715 709 705 713 723 735 739 746 746 746 753 754 753 752 758 765 760 763 761 760 761 764 771 773 761 762 751 746 720 690 675 671 676 678 677 677 678 676
711 706 705 706 710 716 725 712 709 708 709 717 723 728 738 744 747 749 749 743 746 748 752 759 763 758 762 765 762 759 756 768 769 751 727 694 687 678 669 672 671 673 677 677 673
710 705 706 708 713 723 715 717 712 711 710 713 717 726 727 736 740 743 741 745 745 749 751 757 764 761 768 764 749 762 765 763 748 736 724 697 668 661 667 666 666 664 673 674 671
710 704 709 710 719 726 718 710 713 715 713 714 716 718 724 731 736 738 739 742 746 749 752 752 759 761 744 735 738 734 735 740 743 722 720 710 665 664 663 664 671 669 666 667 669
704 706 711 713 713 717 722 714 713 712 713 715 719 719 724 728 735 736 742 744 746 746 745 750 759 748 722 739 739 743 728 723 721 724 710 709 665 668 668 671 669 668 665 663 665
708 705 717 720 719 715 716 717 716 716 717 717 719 720 724 730 733 738 741 741 744 744 747 747 744 741 725 712 722 740 726 723 732 720 689 679 668 667 675 674 666 664 663 662 664
706 710 713 717 717 708 707 713 715 716 717 717 723 722 724 730 736 740 738 740 742 746 746 748 751 737 729 723 720 719 715 711 715 702 702 658 674 671 670 675 666 662 663 663 665
711 708 711 712 713 710 711 711 712 717 715 720 719 724 726 731 731 732 735 739 736 741 746 745 743 743 735 719 716 714 701 697 693 687 690 685 677 666 661 660 658 658 658 662 666
719 716 712 716 713 711 708 711 711 713 719 718 721 724 728 729 731 733 737 734 732 732 735 739 746 743 719 712 701 689 690 685 679 679 678 677 663 658 659 660 659 661 661 659 661